Temp
42 41 43 44 43 44 43 42 39 34 37 44 45 50 50 48 49 48 49 50 48 47 47 48 50 52 53 54 54 55 55 61 61 62 62 63 63 64
42 40 41 43 42 43 43 42 41 39 35 43 46 46 49 50 50 47 47 49 48 46 45 45 46 48 48 50 51 52 54 54 58 60 60 61 62 63
39 39 39 41 41 40 40 41 40 40 37 41 44 45 45 45 47 47 46 46 46 45 43 43 44 44 45 45 47 48 49 52 51 55 59 60 61 62
38 37 39 43 39 37 37 37 37 38 37 35 39 41 42 43 43 43 46 46 45 47 46 45 45 43 44 44 43 44 45 46 48 49 54 57 60 61
37 36 36 35 33 33 32 32 33 38 34 33 32 36 37 39 40 41 41 41 45 47 45 43 42 43 43 43 43 43 44 44 44 45 46 51 54 57
33 33 33 32 31 31 32 31 33 31 33 32 33 34 34 37 36 34 37 38 38 44 45 42 42 43 43 42 42 43 44 44 44 44 43 44 47 52
31 32 32 34 37 36 35 33 32 31 31 31 31 33 33 33 32 33 31 32 35 35 36 37 37 37 39 42 44 44 44 44 43 43 44 43 43 47
29 31 32 34 34 36 36 36 35 30 29 28 28 28 29 30 32 33 31 30 32 34 35 33 37 37 38 37 40 39 40 41 42 43 43 43 43 44
28 28 30 33 33 32 33 34 35 35 33 31 29 30 30 32 32 30 29 30 32 36 34 33 32 33 32 36 38 39 39 40 40 41 42 42 41 42
29 29 28 29 30 31 30 29 30 31 32 33 32 32 33 34 33 33 32 32 32 35 35 31 30 24 23 28 36 38 38 38 38 40 41 42 41 41
30 30 30 31 33 35 31 29 30 30 34 36 36 36 36 37 35 32 29 28 26 29 32 33 30 28 22 23 25 35 36 37 37 37 40 41 41 40
27 29 31 31 32 32 30 29 28 30 32 31 31 34 35 34 36 35 32 28 27 20 28 30 23 24 24 19 20 22 26 34 36 37 40 41 41 43
27 27 28 31 32 32 32 29 29 32 31 30 31 31 32 31 32 34 34 32 29 28 30 30 23 21 21 21 19 20 23 27 32 34 37 40 41 42
27 28 29 31 32 32 31 30 32 31 30 29 28 28 30 30 32 34 34 33 34 34 32 31 26 24 21 16 20 19 19 23 31 31 32 35 38 40
29 30 30 31 30 29 31 31 29 29 28 27 27 28 29 31 32 32 29 32 32 33 34 33 32 27 29 25 21 17 19 20 24 28 28 29 30 32
27 26 25 26 25 24 25 27 27 28 28 28 27 28 30 29 29 29 26 30 31 31 34 34 33 32 28 23 25 18 22 22 19 27 27 27 28 29
26 22 22 22 22 23 23 24 25 27 27 28 28 26 27 27 28 28 31 30 29 24 27 30 31 31 29 27 22 26 21 24 23 24 26 25 25 27
25 20 19 20 20 21 21 22 24 25 27 23 20 23 24 25 26 28 28 28 27 25 25 25 26 26 26 25 28 25 22 24 22 24 26 24 23 26
23 21 20 19 19 21 21 21 21 23 25 25 28 28 27 26 30 28 28 27 25 25 25 25 26 24 20 15 20 28 23 25 22 24 25 25 23 24
21 21 20 20 21 21 20 19 20 21 21 23 23 25 25 25 22 24 24 23 22 21 22 24 24 25 22 17 13 15 28 24 24 22 22 24 25 28
19 19 19 19 19 20 19 18 17 19 19 20 20 21 22 18 20 20 19 19 18 21 20 21 21 22 21 19 15 13 19 29 27 24 23 22 21 21
16 17 17 18 17 17 18 19 17 17 18 17 18 19 20 19 20 21 18 16 17 16 18 21 23 23 18 19 11 7 14 19 25 27 27 25 21 18
14 14 14 14 16 16 16 17 19 17 17 16 16 16 18 18 17 16 15 17 19 20 20 19 20 20 18 17 15 12 13 16 16 16 14 23 27 26
MSLP
1016.30 1016.40 1016.45 1016.28 1016.15 1015.92 1015.74 1015.65 1015.33 1014.57 1013.89 1013.61 1013.21 1012.69 1012.29 1011.86 1011.47 1011.36 1011.37 1011.01 1010.75 1010.58 1010.65 1010.83 1011.14 1011.37 1011.36 1011.45 1011.26 1010.97 1011.02 1009.70 1010.27 1010.93 1011.68 1012.93 1013.84 1014.80
1015.93 1016.00 1015.89 1015.76 1015.56 1015.34 1015.08 1014.85 1014.72 1014.47 1013.56 1013.49 1012.94 1012.63 1012.22 1011.83 1011.32 1011.14 1011.01 1010.89 1010.81 1010.45 1010.59 1010.82 1010.97 1010.93 1010.70 1010.78 1010.88 1010.57 1010.55 1010.53 1009.69 1009.67 1010.44 1011.02 1012.78 1013.68
1015.70 1015.65 1015.41 1015.19 1014.95 1014.74 1014.46 1014.19 1014.06 1013.94 1013.22 1012.93 1012.66 1012.37 1012.13 1011.87 1011.60 1011.12 1010.83 1010.66 1010.62 1010.39 1010.43 1010.39 1010.60 1010.53 1010.20 1010.23 1010.17 1010.19 1010.42 1010.34 1010.21 1009.70 1009.32 1010.15 1010.90 1012.20
1015.21 1015.10 1014.78 1014.50 1014.28 1014.14 1014.06 1013.89 1013.69 1013.48 1013.14 1012.61 1012.46 1012.20 1012.02 1011.85 1011.72 1011.43 1011.05 1010.52 1010.36 1010.20 1010.07 1009.81 1009.83 1009.83 1009.76 1009.77 1009.67 1009.76 1010.01 1009.85 1009.71 1009.95 1009.13 1009.16 1009.94 1010.50
1014.66 1014.63 1014.41 1014.27 1014.10 1014.01 1013.95 1013.82 1013.58 1013.33 1013.01 1012.77 1012.53 1012.35 1012.06 1011.78 1011.57 1011.32 1011.11 1010.80 1010.25 1009.89 1009.53 1009.30 1009.30 1009.31 1009.28 1009.23 1009.28 1009.31 1009.23 1009.34 1009.50 1009.70 1008.91 1008.72 1008.62 1009.75
1014.54 1014.43 1014.23 1014.09 1013.91 1013.75 1013.59 1013.37 1013.17 1012.91 1012.61 1012.37 1012.05 1012.05 1011.99 1011.71 1011.46 1011.38 1011.10 1010.87 1010.54 1009.86 1009.32 1009.01 1008.86 1008.72 1008.74 1008.79 1008.92 1008.92 1008.96 1009.08 1008.97 1008.65 1008.71 1008.69 1008.92 1008.23
1014.32 1014.11 1013.84 1013.58 1013.23 1012.92 1012.71 1012.49 1012.50 1012.24 1011.87 1011.56 1011.19 1011.27 1011.18 1011.37 1011.46 1011.17 1010.92 1010.77 1010.47 1009.95 1009.35 1008.89 1008.78 1008.51 1008.31 1008.34 1008.36 1008.21 1008.33 1008.59 1008.68 1008.67 1008.63 1008.42 1008.54 1008.38
1013.79 1013.46 1013.15 1012.72 1012.28 1011.87 1011.60 1011.41 1011.49 1011.30 1011.08 1011.06 1010.81 1010.64 1010.51 1010.89 1010.86 1010.70 1010.56 1010.57 1010.41 1009.96 1009.75 1009.37 1008.99 1008.54 1008.31 1008.15 1007.99 1008.14 1008.05 1008.02 1008.05 1008.25 1008.11 1007.86 1007.42 1007.87
1013.18 1012.84 1012.35 1011.87 1011.46 1011.08 1010.71 1010.45 1010.27 1010.12 1010.06 1010.19 1010.04 1009.89 1009.81 1010.10 1010.31 1010.08 1010.02 1009.96 1009.68 1009.49 1009.57 1009.38 1009.11 1008.49 1008.12 1007.98 1007.88 1007.63 1007.46 1007.53 1007.54 1007.48 1007.43 1007.25 1007.05 1007.20
1012.41 1011.98 1011.59 1011.07 1010.68 1010.40 1010.06 1009.74 1009.43 1009.16 1009.06 1009.04 1008.90 1008.90 1008.95 1009.14 1009.26 1009.28 1009.38 1009.32 1009.13 1008.98 1009.28 1008.90 1008.87 1008.61 1007.94 1007.65 1007.26 1007.05 1006.98 1007.03 1006.96 1006.79 1006.66 1006.55 1006.55 1006.56
1011.54 1011.11 1010.63 1010.01 1009.49 1009.08 1008.77 1008.47 1008.10 1007.76 1007.70 1007.69 1007.67 1007.71 1007.85 1007.94 1008.11 1008.42 1008.50 1008.79 1008.48 1008.45 1008.64 1008.68 1008.37 1008.71 1008.03 1007.38 1006.89 1006.73 1006.56 1006.51 1006.43 1006.06 1005.89 1005.64 1005.58 1005.70
1010.73 1010.10 1009.56 1009.05 1008.48 1008.06 1007.75 1007.42 1006.86 1006.37 1006.47 1006.44 1006.48 1006.48 1006.51 1006.62 1006.80 1006.93 1007.22 1007.27 1007.56 1007.62 1007.59 1007.84 1007.99 1008.12 1008.01 1007.15 1006.66 1006.57 1006.28 1006.21 1005.90 1005.34 1004.91 1004.71 1004.68 1004.97
1009.89 1009.11 1008.57 1007.96 1007.39 1006.94 1006.64 1006.29 1005.81 1005.66 1005.45 1005.50 1005.45 1005.40 1005.46 1005.51 1005.54 1005.66 1005.84 1006.11 1006.31 1006.37 1006.39 1006.70 1007.17 1007.60 1007.41 1007.36 1006.91 1006.28 1006.38 1005.91 1005.65 1005.13 1004.29 1003.69 1003.67 1004.05
1009.01 1008.36 1007.74 1007.13 1006.44 1005.69 1005.22 1005.16 1004.91 1004.80 1004.64 1004.45 1004.37 1004.29 1004.32 1004.40 1004.34 1004.45 1004.63 1004.88 1005.09 1005.22 1005.58 1005.73 1006.17 1006.72 1007.05 1007.12 1006.95 1006.12 1006.00 1006.00 1005.81 1005.36 1004.66 1003.85 1003.17 1003.05
1008.60 1007.97 1007.24 1006.57 1006.00 1005.38 1004.82 1004.42 1004.16 1003.96 1003.69 1003.48 1003.30 1003.23 1003.17 1003.21 1003.48 1003.70 1003.79 1004.01 1004.25 1004.39 1004.56 1004.75 1004.93 1005.61 1005.93 1006.31 1006.44 1006.36 1006.27 1005.98 1005.95 1005.73 1005.32 1004.87 1003.97 1003.51
1008.34 1007.79 1007.24 1006.63 1006.04 1005.45 1004.77 1004.23 1003.78 1003.23 1002.80 1002.45 1002.33 1002.28 1002.48 1002.78 1002.93 1003.01 1003.38 1003.56 1003.62 1003.44 1003.53 1003.66 1004.01 1004.50 1005.04 1005.36 1005.48 1005.80 1005.78 1006.60 1006.26 1006.14 1005.98 1005.99 1005.13 1004.33
1008.24 1008.01 1007.36 1006.80 1006.20 1005.56 1004.90 1004.28 1003.58 1002.85 1002.27 1001.83 1001.54 1001.82 1002.06 1002.25 1002.39 1002.54 1002.80 1002.93 1002.96 1002.89 1003.01 1002.87 1003.30 1003.87 1004.29 1004.71 1005.30 1004.99 1005.71 1006.21 1006.30 1006.45 1006.58 1006.65 1006.28 1005.83
1008.46 1008.23 1007.89 1007.40 1006.84 1006.10 1005.47 1004.72 1003.91 1003.21 1002.52 1001.90 1001.75 1001.79 1001.88 1001.93 1001.93 1002.01 1002.20 1002.35 1002.51 1002.67 1002.97 1003.24 1003.50 1004.07 1004.58 1004.92 1004.71 1004.98 1005.45 1006.01 1006.56 1006.65 1006.71 1007.03 1007.21 1006.83
1008.91 1008.60 1008.33 1007.87 1007.35 1006.71 1006.18 1005.53 1004.77 1003.95 1003.06 1002.41 1001.88 1001.76 1001.62 1001.52 1001.49 1001.67 1001.93 1002.10 1002.43 1002.75 1003.02 1003.25 1003.44 1003.79 1004.38 1005.05 1005.37 1005.01 1005.72 1006.03 1006.47 1006.85 1006.83 1006.98 1007.57 1007.72
1009.68 1009.30 1008.93 1008.47 1007.88 1007.39 1006.86 1006.25 1005.52 1004.70 1004.02 1003.45 1002.90 1002.43 1001.97 1001.81 1001.91 1002.01 1002.24 1002.51 1002.89 1003.26 1003.53 1003.74 1003.83 1003.96 1004.37 1004.94 1005.80 1006.21 1005.83 1006.21 1006.51 1006.92 1007.23 1007.41 1008.00 1008.36
1010.57 1010.13 1009.76 1009.27 1008.73 1008.07 1007.48 1006.85 1006.25 1005.72 1005.13 1004.49 1003.93 1003.46 1003.07 1002.74 1002.84 1002.87 1003.00 1003.20 1003.49 1003.71 1004.02 1004.24 1004.42 1004.35 1004.89 1005.39 1006.33 1007.01 1006.70 1006.42 1006.56 1006.81 1007.44 1007.80 1008.37 1008.90
1011.51 1011.03 1010.56 1010.02 1009.50 1008.89 1008.16 1007.46 1006.93 1006.44 1005.98 1005.53 1005.05 1004.64 1004.27 1003.97 1003.90 1003.81 1003.85 1004.01 1004.25 1004.48 1004.70 1004.96 1005.08 1005.13 1005.46 1006.06 1007.09 1007.46 1007.82 1007.78 1007.39 1007.54 1007.71 1007.91 1008.45 1008.91
1012.36 1011.94 1011.41 1010.87 1010.28 1009.63 1008.95 1008.31 1007.70 1007.23 1006.79 1006.42 1006.08 1005.71 1005.38 1005.11 1004.98 1004.92 1004.93 1004.88 1004.94 1005.11 1005.26 1005.48 1005.69 1005.95 1006.33 1006.83 1007.32 1007.87 1008.36 1008.36 1008.68 1008.91 1009.21 1008.95 1008.52 1008.50
Wind_Speed
6 6 7 7 6 7 6 6 8 11 10 7 5 5 5 5 5 4 5 7 6 4 4 4 6 8 8 9 6 10 15 34 38 38 36 34 33 33
5 6 8 7 7 6 6 7 6 9 12 8 7 4 5 8 8 6 6 8 9 5 5 6 7 10 9 9 8 3 9 9 25 37 36 35 34 33
6 7 9 9 8 6 6 6 7 7 11 8 4 3 4 6 8 7 5 5 5 7 9 8 10 11 11 11 10 7 7 9 9 21 35 35 37 36
8 7 11 8 9 6 5 6 6 6 7 11 6 5 4 3 4 6 6 5 5 8 13 10 9 10 10 11 10 10 9 8 9 11 28 36 36 37
7 6 7 5 5 3 3 4 4 5 5 5 5 2 3 2 3 4 5 6 5 11 12 13 13 12 11 10 10 12 13 11 11 12 6 26 34 33
5 5 6 6 7 6 6 6 5 5 7 8 8 7 4 4 3 3 6 3 7 8 9 8 8 10 10 10 11 11 12 13 11 10 10 14 24 34
6 7 8 10 18 15 9 10 9 10 11 11 12 11 11 9 7 3 3 2 4 4 3 3 3 3 4 4 6 8 11 13 14 11 13 12 16 26
9 10 10 18 18 23 22 21 16 12 13 10 10 11 12 8 6 8 3 3 7 0 5 4 2 4 4 4 6 9 10 11 12 15 13 14 13 18
10 10 11 10 16 12 17 21 20 22 18 14 14 13 13 9 8 8 6 6 8 5 1 6 2 4 3 4 9 9 9 10 15 16 17 15 14 16
11 12 12 13 14 15 13 13 13 14 13 11 14 14 14 11 11 11 11 10 8 7 3 6 0 4 2 4 9 9 10 13 15 18 22 20 19 18
10 12 13 15 20 23 16 14 16 14 16 23 24 23 21 20 15 8 9 9 8 9 6 7 4 3 2 4 3 8 11 12 14 18 20 20 19 19
11 12 19 19 23 24 16 15 15 14 13 12 9 13 18 18 23 15 9 9 7 2 6 8 2 3 4 2 2 2 3 9 13 16 21 19 19 9
10 10 9 22 24 24 23 12 14 13 12 10 10 9 9 9 8 10 11 10 8 7 5 5 3 2 2 3 3 1 1 3 5 7 13 17 17 18
11 9 10 20 21 19 16 18 20 14 10 9 9 9 9 9 9 9 10 10 10 11 7 7 4 5 3 1 3 3 2 2 3 4 5 4 2 14
8 12 20 18 17 11 13 14 11 8 8 8 9 9 7 8 9 7 5 6 6 8 9 10 7 6 7 5 4 3 3 3 3 3 5 5 2 2
7 7 8 9 8 7 6 7 5 7 7 8 9 8 6 5 6 6 4 6 9 9 11 13 14 11 6 3 3 2 3 2 2 3 3 4 5 5
6 4 5 7 7 7 7 7 6 6 4 5 5 5 5 5 7 4 7 6 7 3 2 3 7 6 3 5 2 3 3 1 1 1 2 2 5 5
4 3 5 7 7 7 8 8 7 8 7 2 1 2 3 4 4 4 3 4 5 3 3 3 6 4 2 4 5 3 2 3 2 3 3 3 3 4
4 6 5 5 6 7 7 7 8 8 9 6 2 1 4 2 5 4 3 2 2 3 4 2 5 2 2 2 1 11 2 2 2 3 3 3 2 2
7 7 6 7 6 6 7 7 8 8 8 8 7 5 4 2 2 2 2 3 3 2 2 1 1 1 2 4 4 2 3 3 3 3 3 6 6 11
7 7 6 7 7 7 6 6 6 8 7 7 7 7 6 3 3 3 3 4 4 2 3 2 2 7 6 4 4 3 3 7 4 5 4 5 3 2
6 7 7 7 7 7 7 6 6 7 7 7 7 6 6 6 5 4 4 3 3 3 3 3 3 3 3 3 3 3 2 6 15 20 16 6 3 5
7 7 7 7 7 7 7 7 6 5 6 6 5 6 6 5 4 4 4 4 5 5 4 4 2 4 3 4 5 3 4 3 3 6 6 19 7 10
Wind_Direction
261 258 260 267 252 258 254 253 267 286 284 293 289 263 279 298 291 316 300 283 239 210 244 263 274 280 282 275 283 310 317 210 202 203 200 204 205 206
265 261 259 261 254 254 256 263 259 270 279 282 281 266 288 301 300 298 286 289 277 234 222 252 276 290 293 282 289 276 353 316 234 201 200 196 205 205
266 267 267 265 265 260 258 257 263 266 277 281 282 291 295 298 301 295 275 263 266 271 245 236 246 254 265 272 276 285 293 250 343 251 200 202 199 203
267 258 269 269 271 253 253 263 267 274 277 287 285 287 264 290 288 295 295 286 264 267 265 242 243 255 243 246 270 281 257 260 271 321 237 201 205 203
280 279 276 284 283 281 272 275 272 288 290 286 279 254 266 282 304 318 309 301 282 260 255 252 248 247 262 278 270 273 274 249 240 267 271 230 200 207
303 288 277 264 255 257 263 256 260 261 273 276 278 270 249 267 273 278 297 293 294 291 268 256 261 256 258 261 275 284 280 272 246 245 263 244 236 200
284 278 275 266 273 270 272 272 269 271 272 273 272 274 264 265 265 252 244 292 289 254 270 261 245 253 266 267 272 282 298 281 272 233 245 237 229 226
282 283 276 279 277 274 272 270 263 261 264 265 271 264 268 263 256 252 225 248 275 19 346 297 225 254 263 282 292 307 310 296 287 266 234 234 221 232
276 275 276 271 275 269 270 269 268 263 254 255 260 258 263 253 246 253 233 236 248 267 346 288 294 267 228 252 266 275 283 292 290 276 253 238 231 218
274 272 270 271 269 271 270 264 262 259 256 248 247 251 253 244 230 235 239 247 257 240 194 263 171 274 287 252 261 285 295 295 293 282 261 240 230 223
280 277 273 275 274 277 273 260 265 256 254 252 250 250 249 245 228 228 229 232 237 240 207 247 208 250 243 270 267 299 303 299 298 298 272 242 230 225
285 280 279 277 277 276 272 266 263 256 257 258 253 253 251 245 244 237 222 222 221 215 204 218 164 171 309 263 267 277 324 301 311 299 286 246 232 230
286 289 284 284 285 280 277 271 261 267 264 258 264 252 239 235 228 229 223 225 229 225 215 183 167 200 180 278 287 273 289 311 309 305 302 259 233 219
291 286 286 295 305 307 273 257 266 264 259 254 246 241 238 229 230 222 215 216 222 230 195 192 193 176 179 234 250 337 324 308 314 319 329 355 43 222
305 311 320 325 321 313 308 297 279 266 253 244 241 248 233 224 220 227 219 214 222 217 220 211 216 193 213 227 223 219 53 322 346 359 347 337 350 6
314 317 315 314 309 302 315 317 289 263 252 243 235 236 231 225 221 206 196 227 243 244 223 214 215 206 208 202 165 186 115 271 341 32 33 354 6 44
321 322 336 341 339 339 335 331 327 330 282 284 221 202 203 212 234 204 222 226 235 190 187 182 188 178 146 152 181 145 136 166 95 88 53 42 19 32
353 318 354 344 343 342 345 341 341 342 336 271 204 177 210 219 218 208 206 208 211 167 150 140 137 115 105 32 37 137 114 125 105 103 103 87 27 27
360 358 347 350 346 349 347 346 342 345 343 352 327 279 225 238 217 188 179 155 114 143 141 124 166 136 126 147 345 45 112 100 108 98 98 85 95 59
0 1 357 352 350 352 353 352 348 354 359 0 3 2 6 65 67 108 113 114 113 79 83 110 91 95 132 162 139 310 40 121 120 95 93 89 84 93
356 1 356 356 353 347 352 352 355 358 356 3 7 8 4 23 45 47 70 71 97 90 110 72 21 95 98 79 63 17 345 97 117 127 137 109 108 87
358 355 354 352 354 350 349 351 357 5 4 4 6 8 13 24 33 47 52 69 56 65 79 86 78 79 62 81 100 100 54 44 71 76 65 77 159 154
358 356 351 352 351 351 353 352 357 1 8 5 9 13 14 29 27 50 53 61 80 84 87 88 63 42 43 95 116 83 114 96 70 65 38 20 110 123